OneWeb SL0511

operational
NORAD ID: 54129 Int'l Des: 2022-138 Owner: ONEWEBN Country: UK Constellation: oneweb
LEOCIRCULARPOLARONEWEB_TYPE

Über OneWeb SL0511

Beschreibung wird geladen...

Live-Position

3D-Globus wird geladen...

Nächste Überflüge

Höhenverlauf

Altitude vs Time

uPlot chart will show altitude changes over time

Zweizeiliger Elementsatz

1 54129U 22138S 25353.70625569 .00000097 00000-0 21078-3 0 9992
2 54129 87.9214 340.6648 0002036 91.8542 268.2824 13.19725121153165
Epoch: 19. Dez. 2025 • Age: 7 hours

Aktueller Status

Höhe 1187.6 km
Geschwindigkeit 7.26 km/s
Subsatellitenpunkt 13.31°N, 112.18°W
Startdatum 22. Okt. 2022
Alter 3.1 years
Typ internet

Technische Details

Klassifizierung Payload
Masse 148.00 kg
Trockenmasse 140.00 kg
Gesamtmasse 148.00 kg
Länge 1.30 m
Durchmesser 1.00 m
Spannweite 5.00 m
Form Trapezoid+2 pan
Hersteller ONEWUS
Bus-Typ ARROW
Phasenstatus In Orbit
Besitzer/Staat ONEWEBN/UK

Große Konstellationen

Loading constellations...